When you browse on this site, cookies collect data to enhance your experience and personalize the content and advertising you see.
Visit our Privacy Policy to learn more. By continuing to use the site, you agree to this use of cookies and data.
  • In Hungary
  • List of Countries
  • For 7 days
  • Water Temperature
  • Satellite Maps
  • Weather Map
  • News
  • Weather Widgets
  • user-avatar
    Login

    Hourly Weather Channarayapatna

    Today, 20 November, Tuesday

    Time Temperature Precipitation Wind Pressure Humidity
    00:00 +21°C° 0 mm 2 mps 688 mmHg 90%
    01:00 +21°C° 0 mm 2 mps 688 mmHg 92%
    02:00 +20°C° 0 mm 2 mps 688 mmHg 94%
    03:00 +20°C° 0 mm 2 mps 688 mmHg 95%
    04:00 +20°C° 0 mm 2 mps 688 mmHg 96%
    05:00 +21°C° 0 mm 1 mps 688 mmHg 96%
    06:00 +21°C° 0 mm 2 mps 688 mmHg 92%
    07:00 +23°C° 0 mm 2 mps 689 mmHg 88%
    08:00 +24°C° 0 mm 2 mps 689 mmHg 83%
    09:00 +25°C° 0 mm 3 mps 689 mmHg 74%
    10:00 +27°C° 0 mm 3 mps 689 mmHg 66%
    11:00 +29°C° 0 mm 3 mps 690 mmHg 55%
    12:00 +29°C° 0 mm 3 mps 689 mmHg 53%
    13:00 +30°C° 0 mm 3 mps 688 mmHg 52%
    14:00 +30°C° 0 mm 3 mps 688 mmHg 51%
    15:00 +29°C° 0 mm 3 mps 688 mmHg 55%
    16:00 +28°C° 0 mm 3 mps 687 mmHg 60%
    17:00 +27°C° 0 mm 2 mps 687 mmHg 64%
    18:00 +26°C° 0 mm 3 mps 688 mmHg 66%
    19:00 +25°C° 0 mm 3 mps 688 mmHg 69%
    20:00 +22°C° 0 mm 3 mps 688 mmHg 71%
    21:00 +22°C° 0 mm 3 mps 688 mmHg 76%
    22:00 +21°C° 0 mm 3 mps 688 mmHg 80%
    23:00 +21°C° 0 mm 3 mps 688 mmHg 85%

    Tomorrow, 21 November, Wednesday

    Time Temperature Precipitation Wind Pressure Humidity
    00:00 +20°C° 0 mm 2 mps 688 mmHg 87%
    01:00 +20°C° 0 mm 2 mps 688 mmHg 88%
    02:00 +20°C° 0 mm 2 mps 687 mmHg 90%
    03:00 +19°C° 0 mm 2 mps 687 mmHg 89%
    04:00 +20°C° 0 mm 1 mps 687 mmHg 89%
    05:00 +19°C° 0 mm 1 mps 687 mmHg 88%
    06:00 +20°C° 0 mm 2 mps 688 mmHg 82%
    07:00 +21°C° 0 mm 2 mps 688 mmHg 76%
    08:00 +22°C° 0 mm 3 mps 689 mmHg 69%
    09:00 +23°C° 0 mm 4 mps 689 mmHg 65%
    10:00 +26°C° 0 mm 4 mps 689 mmHg 60%
    11:00 +27°C° 0 mm 5 mps 689 mmHg 56%
    12:00 +28°C° 0.1 mm 5 mps 688 mmHg 56%
    13:00 +28°C° 0.1 mm 5 mps 688 mmHg 57%
    14:00 +28°C° 0.1 mm 5 mps 687 mmHg 58%
    15:00 +27°C° 0.1 mm 5 mps 687 mmHg 64%
    16:00 +26°C° 0.1 mm 4 mps 687 mmHg 70%
    17:00 +23°C° 0.1 mm 4 mps 687 mmHg 77%
    18:00 +23°C° 0 mm 4 mps 687 mmHg 79%
    19:00 +22°C° 0 mm 3 mps 688 mmHg 82%
    20:00 +22°C° 0 mm 3 mps 688 mmHg 84%
    21:00 +21°C° 0 mm 3 mps 688 mmHg 86%
    22:00 +21°C° 0 mm 3 mps 688 mmHg 88%
    23:00 +20°C° 0 mm 3 mps 688 mmHg 90%

    Day after tomorrow, 22 November, Thursday

    Time Temperature Precipitation Wind Pressure Humidity
    00:00 +20°C° 0 mm 3 mps 687 mmHg 91%
    01:00 +20°C° 0 mm 4 mps 687 mmHg 91%
    02:00 +20°C° 0 mm 4 mps 686 mmHg 92%
    03:00 +20°C° 0 mm 4 mps 687 mmHg 91%
    04:00 +20°C° 0 mm 4 mps 687 mmHg 90%
    05:00 +21°C° 0 mm 4 mps 687 mmHg 89%
    06:00 +21°C° 0 mm 5 mps 687 mmHg 88%
    07:00 +21°C° 0 mm 5 mps 688 mmHg 88%
    08:00 +22°C° 0 mm 5 mps 688 mmHg 87%
    09:00 +22°C° 0.3 mm 6 mps 688 mmHg 86%
    10:00 +22°C° 0.3 mm 6 mps 688 mmHg 85%
    11:00 +23°C° 0.3 mm 6 mps 688 mmHg 83%
    12:00 +23°C° 1.3 mm 7 mps 688 mmHg 84%
    13:00 +22°C° 1.3 mm 7 mps 687 mmHg 85%
    14:00 +22°C° 1.3 mm 7 mps 686 mmHg 86%
    15:00 +22°C° 2.1 mm 7 mps 686 mmHg 88%
    16:00 +22°C° 2.1 mm 7 mps 686 mmHg 90%
    17:00 +21°C° 2.1 mm 7 mps 686 mmHg 92%
    18:00 +21°C° 1 mm 7 mps 687 mmHg 92%
    19:00 +21°C° 1 mm 6 mps 687 mmHg 92%
    20:00 +21°C° 1 mm 6 mps 688 mmHg 92%
    21:00 +21°C° 0.5 mm 6 mps 688 mmHg 92%
    22:00 +21°C° 0.5 mm 6 mps 688 mmHg 93%
    23:00 +21°C° 0.5 mm 6 mps 688 mmHg 93%

    23 November, Friday

    Time Temperature Precipitation Wind Pressure Humidity
    00:00 +21°C° 0.3 mm 5 mps 688 mmHg 94%
    01:00 +21°C° 0.3 mm 5 mps 688 mmHg 94%
    02:00 +21°C° 0.3 mm 5 mps 688 mmHg 94%
    03:00 +21°C° 0.2 mm 5 mps 688 mmHg 94%
    04:00 +20°C° 0.2 mm 4 mps 688 mmHg 94%
    05:00 +20°C° 0.2 mm 4 mps 688 mmHg 94%
    06:00 +21°C° 0.1 mm 4 mps 689 mmHg 93%
    07:00 +21°C° 0.1 mm 5 mps 689 mmHg 91%
    08:00 +21°C° 0.1 mm 5 mps 690 mmHg 90%
    09:00 +23°C° 0.1 mm 5 mps 690 mmHg 85%
    10:00 +25°C° 0.1 mm 5 mps 690 mmHg 81%
    11:00 +26°C° 0.1 mm 5 mps 690 mmHg 77%
    12:00 +26°C° 0.7 mm 5 mps 689 mmHg 75%
    13:00 +27°C° 0.7 mm 5 mps 689 mmHg 73%
    14:00 +27°C° 0.7 mm 4 mps 688 mmHg 71%
    15:00 +26°C° 1.1 mm 4 mps 688 mmHg 76%
    16:00 +25°C° 1.1 mm 4 mps 688 mmHg 80%
    17:00 +24°C° 1.1 mm 3 mps 688 mmHg 85%
    18:00 +24°C° 0.4 mm 3 mps 688 mmHg 87%
    19:00 +22°C° 0.4 mm 3 mps 689 mmHg 90%
    20:00 +21°C° 0.4 mm 3 mps 690 mmHg 92%
    21:00 +21°C° 0 mm 3 mps 690 mmHg 93%
    22:00 +21°C° 0 mm 3 mps 690 mmHg 94%
    23:00 +20°C° 0 mm 3 mps 690 mmHg 96%

    24 November, Saturday

    Time Temperature Precipitation Wind Pressure Humidity
    00:00 +20°C° 0 mm 3 mps 689 mmHg 96%
    01:00 +20°C° 0 mm 3 mps 689 mmHg 97%
    02:00 +20°C° 0 mm 3 mps 688 mmHg 97%
    03:00 +20°C° 0 mm 3 mps 688 mmHg 97%
    04:00 +19°C° 0 mm 3 mps 689 mmHg 96%
    05:00 +19°C° 0 mm 3 mps 689 mmHg 96%
    06:00 +20°C° 0 mm 3 mps 689 mmHg 92%
    07:00 +21°C° 0 mm 3 mps 690 mmHg 89%
    08:00 +21°C° 0 mm 3 mps 691 mmHg 85%
    09:00 +24°C° 0 mm 3 mps 691 mmHg 76%
    10:00 +26°C° 0 mm 3 mps 691 mmHg 67%
    11:00 +27°C° 0 mm 3 mps 691 mmHg 59%
    12:00 +28°C° 0 mm 3 mps 690 mmHg 57%
    13:00 +28°C° 0 mm 3 mps 690 mmHg 55%
    14:00 +29°C° 0 mm 3 mps 689 mmHg 53%
    15:00 +28°C° 0 mm 3 mps 689 mmHg 57%
    16:00 +27°C° 0 mm 2 mps 689 mmHg 61%
    17:00 +26°C° 0 mm 2 mps 689 mmHg 66%
    18:00 +25°C° 0 mm 2 mps 689 mmHg 68%
    19:00 +24°C° 0 mm 2 mps 690 mmHg 70%
    20:00 +23°C° 0 mm 2 mps 690 mmHg 72%
    21:00 +23°C° 0 mm 2 mps 690 mmHg 75%
    22:00 +21°C° 0 mm 2 mps 690 mmHg 77%
    23:00 +21°C° 0 mm 2 mps 690 mmHg 80%

    25 November, Sunday

    Time Temperature Precipitation Wind Pressure Humidity
    00:00 +21°C° 0 mm 1 mps 689 mmHg 83%
    01:00 +21°C° 0 mm 1 mps 689 mmHg 85%
    02:00 +20°C° 0 mm 1 mps 688 mmHg 88%
    03:00 +20°C° 0 mm 1 mps 688 mmHg 89%
    04:00 +20°C° 0 mm 1 mps 688 mmHg 90%
    05:00 +20°C° 0 mm 1 mps 689 mmHg 91%
    06:00 +21°C° 0 mm 1 mps 689 mmHg 87%
    07:00 +22°C° 0 mm 1 mps 690 mmHg 82%
    08:00 +24°C° 0 mm 1 mps 691 mmHg 78%
    09:00 +25°C° 0 mm 2 mps 691 mmHg 72%
    10:00 +26°C° 0 mm 2 mps 691 mmHg 66%
    11:00 +28°C° 0 mm 3 mps 691 mmHg 60%
    12:00 +28°C° 0.2 mm 3 mps 690 mmHg 60%
    13:00 +28°C° 0.2 mm 3 mps 689 mmHg 59%
    14:00 +29°C° 0.2 mm 3 mps 688 mmHg 59%
    15:00 +28°C° 0.2 mm 3 mps 688 mmHg 62%
    16:00 +27°C° 0.2 mm 2 mps 688 mmHg 66%
    17:00 +26°C° 0.2 mm 2 mps 688 mmHg 70%
    18:00 +25°C° 0 mm 2 mps 688 mmHg 71%
    19:00 +24°C° 0 mm 2 mps 689 mmHg 71%
    20:00 +23°C° 0 mm 1 mps 689 mmHg 72%
    21:00 +22°C° 0 mm 1 mps 689 mmHg 73%
    22:00 +22°C° 0 mm 1 mps 688 mmHg 73%
    23:00 +21°C° 0 mm 1 mps 688 mmHg 74%
    Show more